TimeMDT,TemperatureF,Dew PointF,Humidity,Sea Level PressureIn,VisibilityMPH,Wind Direction,Wind SpeedMPH,Gust SpeedMPH,PrecipitationIn,Events,Conditions,WindDirDegrees,DateUTC
5:25 AM,32.0,30.2,93,30.55,10.0,NNW,12.7,-,N/A,Snow,Light Snow,340,2012-10-03 11:25:00
5:45 AM,30.2,26.6,86,30.56,15.0,NNW,18.4,-,N/A,,Mostly Cloudy,340,2012-10-03 11:45:00
6:00 AM,30,26,81,30.57,15,NNW,18.4,,,Snow,Light Snow,340,2012-10-03 12:00:00
6:00 AM,30.2,26.6,86,30.57,15.0,NNW,17.3,24.2,N/A,,Mostly Cloudy,340,2012-10-03 12:00:00
7:00 AM,30.2,26.6,86,30.60,15.0,NNW,18.4,27.6,N/A,,Mostly Cloudy,340,2012-10-03 13:00:00
8:13 AM,30.2,26.6,86,30.62,10.0,NNW,12.7,-,N/A,Snow,Light Snow,330,2012-10-03 14:13:00
9:00 AM,30.2,28.4,93,30.63,10.0,NW,9.2,-,N/A,,Overcast,320,2012-10-03 15:00:00
10:00 AM,32.0,28.4,87,30.64,15.0,NW,11.5,-,N/A,,Overcast,320,2012-10-03 16:00:00
11:00 AM,32.0,28.4,87,30.66,20.0,NNW,11.5,-,N/A,,Overcast,330,2012-10-03 17:00:00
12:00 PM,35,29,69,30.66,19,NNW,12.7,,,,Partly Cloudy,330,2012-10-03 18:00:00
12:00 PM,35.6,28.4,75,30.65,20.0,NNW,11.5,-,N/A,,Mostly Cloudy,330,2012-10-03 18:00:00
1:00 PM,37.4,28.4,70,30.65,20.0,NW,12.7,-,N/A,,Mostly Cloudy,320,2012-10-03 19:00:00
2:00 PM,39.2,26.6,61,30.63,20.0,NW,5.8,-,N/A,,Mostly Cloudy,310,2012-10-03 20:00:00
3:00 PM,41.0,26.6,57,30.61,30.0,WNW,6.9,-,N/A,,Mostly Cloudy,290,2012-10-03 21:00:00
4:00 PM,39.2,28.4,65,30.62,20.0,ENE,12.7,-,N/A,,Mostly Cloudy,60,2012-10-03 22:00:00
4:13 PM,35.6,30.2,81,30.63,15.0,ENE,16.1,-,N/A,Snow,Light Snow Grains,60,2012-10-03 22:13:00
4:40 PM,35.6,30.2,81,30.63,20.0,NE,10.4,-,N/A,,Mostly Cloudy,50,2012-10-03 22:40:00
5:00 PM,35.6,28.4,75,30.63,20.0,ENE,6.9,-,N/A,,Mostly Cloudy,60,2012-10-03 23:00:00
6:00 PM,37,26,53,30.63,19,East,3.5,,,,Partly Cloudy,80,2012-10-04 00:00:00
6:00 PM,37.4,26.6,65,30.62,20.0,East,3.5,-,N/A,,Mostly Cloudy,80,2012-10-04 00:00:00
7:00 PM,30.2,26.6,86,30.64,20.0,SSW,4.6,-,N/A,,Scattered Clouds,200,2012-10-04 01:00:00
8:00 PM,32.0,28.4,87,30.64,15.0,South,3.5,-,N/A,,Scattered Clouds,170,2012-10-04 02:00:00
9:00 PM,28.4,26.6,93,30.64,15.0,South,2.3,-,N/A,,Partly Cloudy,190,2012-10-04 03:00:00
10:00 PM,23.0,19.4,86,30.46,15.0,SSE,4.6,-,N/A,,Clear,160,2012-10-04 04:00:00